Flag for Canada Weather past 2 weeks in Brantford, Ontario, Canada

Now
72 °F

Broken clouds.


Feels Like: 72 °F
Forecast: 65 / 81 °F
Wind: 20 mph from Southwest

Location: Hamilton Airport

Current Time: May 27, 2015 at 11:04:45 AM

Latest Report: May 27, 2015 at 10:00 AM


Visibility: 15 mi

Pressure: 29.99 "Hg

Humidity: 78%

Dew point: 64 °F

Location of BrantfordLocation

Historic Weather in Brantford — Graph

°F

Brantford temperature yesterday

Maximum temperature yesterday: 81 °F (at 5:00 PM)
Minimum temperature yesterday: 64 °F (at 6:00 AM)
Average temperature yesterday: 73 °F

Past Weeks' High & Low Weather Summary

 TemperatureHumidityPressure
High82 °F (May 18, 2:00 PM)100% (May 18, 5:00 AM)30.50 "Hg (May 18, 5:00 AM)
Low32 °F (May 23, 3:00 AM)19% (May 22, 7:00 PM)29.85 "Hg (May 12, 10:00 AM)
Average59 °F61%30.12 "Hg
* Reported May 12 10:00 AM — May 27 10:00 AM, Brantford, Weather by CustomWeather, © 2015

Note: Actual official high and low records may vary slightly from our data, if they occured in-between our weather recording intervals... More about our weather records

Advertising

Brantford weather history for previous 24 hours

 ConditionsComfort  
Time TempWeatherWind HumidityBarometerVisibility
10:00 AM
Wed, May 27
72 °FBroken clouds.20 mph78%29.99 "Hg15 mi
9:00 AM70 °FPartly sunny.16 mph83%29.99 "Hg15 mi
8:00 AM68 °FPartly sunny.18 mph88%29.98 "Hg15 mi
7:00 AM68 °FMostly cloudy.13 mph88%29.96 "Hg15 mi
6:00 AM68 °FOvercast.16 mph88%29.95 "Hg15 mi
5:00 AM66 °FOvercast.10 mph94%29.94 "Hg15 mi
4:00 AM66 °FSprinkles. Passing clouds.12 mph94%29.93 "Hg15 mi
3:00 AM68 °FPartly cloudy.16 mph88%29.92 "Hg15 mi
2:00 AM68 °FPartly cloudy.10 mph88%29.93 "Hg15 mi
1:00 AM68 °FPassing clouds.14 mph83%29.95 "Hg15 mi
12:00 AM70 °FPassing clouds.12 mph78%29.96 "Hg15 mi
11:00 PM
Tue, May 26
70 °FPassing clouds.13 mph78%29.95 "Hg15 mi
10:00 PM70 °FPassing clouds.10 mph78%29.97 "Hg15 mi
9:00 PM72 °FPartly sunny.13 mph73%29.96 "Hg15 mi
8:00 PM75 °FPartly sunny.13 mph69%29.97 "Hg15 mi
7:00 PM79 °FPartly sunny.14 mph61%29.98 "Hg15 mi
6:00 PM81 °FPartly sunny.21 mph58%29.98 "Hg15 mi
5:00 PM81 °FPartly sunny.20 mph54%30.00 "Hg15 mi
4:00 PM79 °FBroken clouds.14 mph61%30.03 "Hg15 mi
3:00 PM79 °FPartly sunny.14 mph61%30.04 "Hg15 mi
2:00 PM79 °FBroken clouds.20 mph61%30.06 "Hg15 mi
1:00 PM79 °FBroken clouds.20 mph61%30.06 "Hg15 mi
12:00 PM77 °FBroken clouds.15 mph65%30.07 "Hg15 mi
11:00 AM77 °FBroken clouds.10 mph69%30.08 "Hg15 mi
Weather by CustomWeather, © 2015

See weather overviewHow to use our weather pages